The Moncton/Gander FIR airspace is a lot larger than what most virtual pilots think. Online tools such as ServInfo, VATSpy and VROUTE do not properly indicated the airspace that we cover.

Here is the break down of the CZQM/QX airspace and what areas we control depending on what positions are online.

 

Moncton Center (CZQM) Online & Gander Center (CZQX) Offline

     

Moncton Center controls Moncton (QM) airspace.

Moncton Center controls Gander Domestic (QX) airspace.

Moncton Center controls Sept Îles (ZV) airspace FL290 and above.

 

Moncton Center (CZQM) Online & Gander Center (CZQX) Online

Moncton Center controls Moncton (QM) airspace.

Moncton Center controls Sept Îles (ZV) airspace FL290 and above.

Moncton Center controls QM HI airspace FL290 and above.

Remaining airpace is controlled by Gander Center

 

Gander Center (CZQX) Online & Moncton Center (CZQM) Offline

Gander Center controls Gander (QX) airspace.

Gander Center controls Sept Îles (ZV) airspace FL290 and above.

Gander Center controls Gander Low (QX LO) airspace all flight levels.

 

Gander Center (CZQX) Online & Moncton Center (CZQM) Online

Gander Center controls Gander (QX) airspace.

Gander Center controls Sept Îles (ZV) airspace FL280 and below.

Gander Center controls QX LO airspace FL280 and below.

Remaining airpace is controlled by Moncton Center.

 

Halifax Terminal (CYHZ) Online

Class D airspace.

Surface to FL230.

 

Moncton Center (CYQM) Airspace

Controls Moncton (CYQM) & Charlottetown (CYYG).

Surface to FL280.

For Flight Simulation Use Only – Not To Be Used For Real World Navigation

CYHZ 291600Z VRB08KT 15SM BKN035 BKN070 BKN250 16/08 A3013 RMK CU5AC1CI1 SLP208

CYQM 291600Z 01009KT 350V060 15SM BKN013 BKN047 10/06 A3019 RMK SC5SC2 SLP226

CYFC 291600Z AUTO 07008KT 9SM OVC013 11/08 A3018 RMK SLP221

CYQX 291600Z 05003KT 040V110 15SM -DZ VCFG OVC008 05/03 A3014 RMK SF8 VIS N-NE 5 BR SLP213

CYYR 291600Z 25002KT 15SM FEW045 SCT270 16/M02 A3011 RMK CU1CI4 SLP200

 

 

Digita il nome di un aeroporto: